Location: Rounton
(54.4000°N, 1.3500°W)
Time: 08:08:59
(UTC+00:00)

Vanguard 1 - Pass Details

Date: 03 December 2021
Orbit: 652 x 3830 km, 34.2° (Epoch: 16 January)

Event Time Altitude Azimuth Distance (km) Brightness Sun altitude
Rises 02:30:03 0° 249° (WSW) 7,865 - -46.6°
Reaches altitude 10° 02:35:52 10° 243° (WSW) 6,927 - -45.9°
Maximum altitude 02:55:59 40° 185° (S) 4,405 - -43.3°
Exits shadow 02:56:32 40° 182° (S) 4,379 13.0 -43.2°
Drops below altitude 10° 03:10:56 10° 124° (ESE) 5,238 14.0 -41.3°
Sets 03:14:35 0° 117° (ESE) 5,866 14.5 -40.8°
